Starlink 32466

operational
NORAD ID: 61859 Int'l Des: 2024-202 Owner: SPXS Country: US Constellation: starlink
LEOCIRCULAR

关于 Starlink 32466

正在加载描述...

实时位置

正在加载3D地球...

即将过境

高度历史

Altitude vs Time

uPlot chart will show altitude changes over time

两行轨道根数

1 61859U 24202Q 25351.27762974 -.00000883 00000-0 -22590-4 0 9992
2 61859 42.9973 343.4215 0000350 72.6188 287.4702 15.27591769 62737
Epoch: Dec 17, 2025 • Age: 8 hours

当前状态

高度 491.3 km
速度 7.62 km/s
星下点 -30.31°S, 2.06°E
发射日期 Nov 7, 2024
运行时间 1.1 years
类型 internet

技术详情

分类 Payload
质量 730.00 kg
干质量 700.00 kg
总质量 730.00 kg
长度 0.30 m
直径 4.10 m
跨度 29.00 m
形状 Box + pan
制造商 SPXS
平台类型 Starlink V2M
阶段状态 In Orbit
所有者/国家 SPXS/US

大型星座

Loading constellations...